METAR Formatted Surface Weather Observation
Issued by NWS

Home | Current Version | Previous Version | Text Only | Print | Product List | Glossary On
Versions: 1 2 3 4 5 6 7 8 9 10 11 12 13 14 15 16 17 18 19 20 21 22 23 24 25 26 27 28 29 30 31 32 33 34 35 36 37 38 39 40 41 42 43 44 45 46 47 48 49 50
177
SAUS43 KUNR 061357
MTR2WX
METAR K2WX 061356Z AUTO 30021G30KT M17/M20 A2987 RMK AO1 PK WND
29032/1320 SLP185 T11671200



USA.gov is the U.S. government's official web portal to all federal, state and local government web resources and services.